Skip Page Navigation
NASA JPL Caltech
NASA Logo - Jet Propulsion Laboratory + View the NASA Portal
+ Near-Earth Object (NEO) Program
Search JPL
JPL Home Earth Solar System Stars & Galaxies Technology
JPL Solar System Dynamics
BODIES ORBITS EPHEMERIDES TOOLS PHYSICAL DATA DISCOVERY FAQ SITE MAP
JPL Small-Body Database Browser
Search: [ help ]  
6662 (1993 BP13)
Classification: Main-belt Asteroid          SPK-ID: 2006662
Ephemeris | Orbit Diagram | Orbital Elements | Physical Parameters | Discovery Circumstances ]

[ show orbit diagram ]
Orbital Elements at Epoch 2456400.5 (2013-Apr-18.0) TDB
Reference: MPO256913 (heliocentric ecliptic J2000)
 Element Value Uncertainty (1-sigma)   Units 
e 0.1039582 n/a  
a 2.6004720 n/a AU
q 2.3301316 n/a AU
i 12.52446 n/a deg
node 268.64404 n/a deg
peri 234.23916 n/a deg
M 293.00210 n/a deg
tp 2456685.5594187
(2014-Jan-28.05941870)
n/a JED
period 1531.7105569
4.19
n/a
n/a
d
yr
n 0.23503135 n/a deg/d
Q 2.8708124 n/a AU
  Orbit Determination Parameters
   # obs. used (total)      845  
   first obs. used      1987-??-??  
   last obs. used      2013-02-28  
   # oppositions      17  
   planetary ephem.      DE403  
   condition code      0  
   fit RMS      0.48  
   data source      MPC:mpn  
   producer      MPCLINUX  

Additional Information
 T_jup = 3.374 

Ephemeris | Orbit Diagram | Orbital Elements | Physical Parameters | Discovery Circumstances ]

Physical Parameter Table
Parameter Symbol Value Units Sigma Reference Notes
absolute magnitude H 11.4 mag n/a PDS3 (MPC 28115)  
rotation period rot_per 24. h n/a Asteroid Lightcurve DataBase (Rev. 2013-May-01) lower-limit; Result based on fragmentary lightcurve(s), may be completely wrong.
Published Reference List:
[Behrend, R. (2004) Observatoire de Geneve web site, http://obswww.unige.ch/~behrend/page_cou.html]

6662 (1993 BP13)          Discovered 1993-Jan-22 by Ueda, S., Kaneda, H. at Kushiro (399)
Reference: DISCOVERY.DBLast Updated: 2003-08-29

Alternate Designations
 1993 BP13 = 1982 RW2 = 1987 VC2 
Ephemeris | Orbit Diagram | Orbital Elements | Physical Parameters | Discovery Circumstances ]
ABOUT SSD CREDITS/AWARDS PRIVACY/COPYRIGHT GLOSSARY LINKS
FirstGov 2013-May-20 03:52 UT
(server date/time)  
NASA Home Page
Site Manager:   Donald K. Yeomans
Webmaster  Alan B. Chamberlin